カタログに戻る

OV1-5 DEB

運用中LEO
NORAD 5361·DEBRIS·🇺🇸 United States

打ち上げ Mar 30, 1966 から Vandenberg Space Force Base

Loading…

次のパス (今後24時間)

TLE

最新Source: Space-Track

元期: Sep 14, 2026, 04:51 UTC

1 05361U 66025F   26257.20241882  .00005915  00000-0  11999-2 0  9994
2 05361 144.6110 106.2234 0019960 200.3674 159.6229 14.57437818381823

AllMySatでOV1-5 DEBをリアルタイム追跡

Download on the App Store